Theta_e
310 309 308 309 308 308 307 307 305 300 302 303 302 305 303 303 304 304 302 305 306 305 305 306 307 307 306 306 307 308 309 310 311 311 312 313 314 315
310 309 308 307 307 308 307 307 307 305 302 302 302 302 303 302 304 301 300 303 302 303 304 306 305 304 305 305 305 305 307 308 308 309 309 310 311 312
309 307 306 307 305 305 305 304 304 304 299 301 301 301 301 300 300 300 300 299 300 301 303 305 304 303 303 303 304 304 305 306 307 307 307 307 308 310
308 307 305 306 303 304 302 301 299 298 300 298 298 299 299 300 298 297 297 299 299 300 303 303 302 302 302 302 302 303 302 304 304 305 305 306 307 308
306 305 303 303 301 301 299 297 297 298 298 297 296 298 298 298 296 297 296 297 299 302 300 301 301 301 302 301 302 302 303 303 303 303 303 304 305 306
303 303 304 302 301 298 297 297 297 296 296 296 296 296 296 296 295 294 294 297 296 299 299 300 300 301 301 301 302 302 303 302 302 302 302 302 302 303
301 301 301 303 303 300 297 296 296 295 295 295 294 293 293 292 292 294 293 295 297 297 297 299 299 299 299 300 301 302 302 302 302 302 302 301 301 302
301 302 305 305 303 303 302 301 298 296 295 294 292 291 292 293 294 293 293 292 290 299 296 297 299 297 299 300 302 302 301 301 301 302 302 302 302 301
297 296 296 299 299 301 300 299 299 298 296 294 292 292 292 294 294 293 294 293 291 295 295 295 297 295 299 299 300 301 301 301 301 301 302 302 301 300
294 293 293 293 296 296 296 295 295 296 296 295 294 294 295 295 295 295 295 295 296 297 296 291 297 295 297 298 300 300 300 300 300 301 301 301 300 299
292 293 294 295 295 294 294 293 293 293 295 295 295 295 294 294 296 296 294 292 290 293 296 293 294 294 295 297 298 301 300 300 300 300 301 301 300 299
293 295 296 295 293 293 293 293 291 291 293 294 295 295 295 296 296 297 295 291 290 290 296 292 293 292 290 298 299 301 303 301 300 300 301 301 300 301
293 293 294 294 292 292 292 293 292 292 292 293 293 294 295 295 296 296 296 294 291 291 296 294 292 292 292 291 295 299 301 300 301 302 302 301 300 300
291 293 293 292 292 292 293 291 291 292 293 292 292 292 292 293 294 296 296 296 296 295 296 296 292 291 290 290 290 296 298 299 301 300 301 301 301 299
293 293 292 291 291 292 292 291 292 292 291 290 290 291 292 293 295 296 297 297 297 297 297 297 294 294 292 290 290 292 294 298 300 299 300 301 297 297
293 293 292 291 291 290 291 290 290 291 290 289 290 291 293 293 293 293 293 295 295 295 297 298 297 294 292 293 293 293 296 294 298 298 300 299 297 296
291 290 289 289 288 288 289 289 289 289 289 289 290 290 290 291 291 293 293 293 291 291 293 296 297 296 296 295 293 295 294 295 297 298 299 297 295 295
289 287 286 286 286 286 287 287 288 287 287 289 289 289 289 289 290 292 293 292 290 290 291 293 293 293 294 296 298 293 294 295 298 298 299 296 294 295
286 286 285 285 285 286 286 286 286 286 288 288 288 288 288 289 290 291 292 291 290 290 291 293 292 290 287 287 293 297 293 296 297 296 297 297 295 296
285 285 285 285 285 285 285 285 286 287 287 287 287 288 289 289 289 290 291 290 289 290 290 292 291 290 288 287 288 292 294 296 296 294 295 298 297 296
284 284 284 285 285 285 285 286 286 285 285 286 287 288 289 289 289 290 289 287 288 289 288 289 291 288 294 295 292 293 296 297 299 296 295 294 296 294
284 284 284 285 285 285 285 286 286 286 285 286 287 288 289 290 289 289 288 288 288 288 288 292 293 293 293 292 291 292 293 296 299 299 298 296 294 291
284 284 284 284 285 285 286 286 286 286 286 286 287 288 289 289 289 290 289 288 289 288 290 291 293 293 292 291 290 292 292 293 295 296 297 298 297 297
Wind_Speed
7 7 7 4 5 4 4 3 4 4 6 2 2 2 2 4 7 7 9 14 16 16 16 14 14 16 16 16 17 18 18 17 16 15 15 16 16 18
5 8 8 6 6 6 5 4 2 3 2 1 2 1 3 5 9 9 10 15 14 16 14 14 16 16 15 16 17 16 16 16 14 13 13 14 14 13
8 10 9 8 6 5 6 5 4 2 2 2 1 1 2 7 9 10 10 10 9 16 14 15 16 16 16 17 16 14 14 14 12 12 13 14 15 15
10 10 9 6 8 7 6 6 4 3 2 2 2 2 2 6 8 10 10 8 10 12 16 16 17 16 16 15 12 13 12 12 12 14 16 15 16 16
12 8 9 8 8 7 6 6 5 4 5 3 2 1 2 4 9 9 10 11 9 14 12 16 16 15 15 13 13 13 11 9 11 14 15 15 16 17
14 8 7 8 9 8 7 7 5 5 5 3 2 2 2 5 6 10 10 9 11 9 10 12 13 15 16 14 13 11 11 11 11 13 14 14 15 17
12 10 6 11 16 11 6 5 6 5 3 2 3 3 4 8 9 9 10 10 11 3 11 9 9 8 8 10 10 11 13 13 12 14 15 15 15 16
12 10 8 14 14 17 13 11 9 5 3 2 2 3 6 6 7 8 8 10 7 5 12 12 7 8 8 7 14 14 15 15 16 16 15 14 14 15
11 9 10 9 12 11 16 18 15 13 7 2 2 3 4 8 8 9 10 9 8 10 9 9 5 9 7 7 14 15 14 14 16 16 14 13 11 11
8 9 10 10 9 10 11 10 8 5 4 3 2 4 5 7 6 8 10 11 8 4 3 5 9 10 8 7 12 13 14 14 15 15 14 13 11 9
8 9 9 10 12 11 10 9 5 5 5 7 6 7 9 10 8 7 8 8 7 6 1 4 6 11 7 7 5 14 13 12 15 15 14 13 10 7
10 9 16 12 13 11 9 6 7 6 7 7 7 8 9 9 11 7 7 7 5 4 1 7 5 5 9 3 9 9 9 12 15 13 14 13 10 1
9 10 9 15 14 12 8 7 6 3 5 5 6 7 8 8 7 7 7 6 6 4 8 4 4 3 4 6 7 8 8 9 8 8 11 11 8 4
11 8 9 14 12 11 9 11 10 7 6 7 8 8 8 8 8 9 9 8 6 8 9 6 5 5 5 6 6 6 11 10 6 7 8 10 6 7
9 13 13 12 11 12 16 13 10 8 8 9 9 8 7 8 10 9 9 8 9 7 6 7 7 9 6 6 7 7 11 9 7 10 8 8 5 4
15 10 12 12 13 11 9 10 9 8 8 8 8 7 7 9 9 9 10 9 7 6 7 5 8 10 6 5 6 7 9 7 10 9 8 5 6 5
11 8 9 8 9 8 8 10 9 10 9 8 7 10 10 9 8 9 8 8 6 10 11 9 10 9 5 5 3 7 11 9 10 8 6 6 7 7
10 10 9 8 10 9 10 10 10 11 8 8 9 9 9 9 9 9 7 7 8 8 9 10 11 10 7 2 5 7 8 9 9 10 7 5 7 9
11 8 9 9 9 9 9 8 8 7 8 9 9 9 8 8 8 9 9 8 8 7 8 8 8 7 8 6 5 8 10 10 10 9 6 6 5 5
9 9 9 9 9 9 8 8 7 9 10 10 9 9 8 8 9 9 10 10 9 8 8 8 8 9 6 4 4 5 15 10 10 10 7 4 1 7
8 9 9 8 7 7 7 6 9 10 10 8 8 8 8 8 9 9 9 10 9 9 10 9 9 10 5 4 3 6 9 16 11 10 8 2 4 6
8 9 7 6 7 7 6 8 10 11 9 8 8 8 8 8 9 10 10 9 9 8 8 7 9 8 7 7 6 8 8 8 10 15 22 18 6 6
8 7 7 7 6 6 7 9 9 8 7 8 8 8 9 9 10 9 9 8 9 9 10 9 8 7 8 7 6 7 12 10 7 8 11 19 18 15
Wind_Direction
119 119 112 109 100 100 114 131 145 193 219 112 218 246 352 0 346 359 339 325 333 328 326 321 327 322 315 312 311 310 304 307 302 309 306 314 317 291
118 117 100 100 91 89 95 101 86 157 171 149 207 282 346 350 355 351 337 337 331 326 321 326 325 320 314 311 308 310 305 303 307 316 317 316 317 319
114 108 107 105 101 99 84 72 76 84 114 188 259 13 310 358 347 345 341 328 327 325 323 325 324 321 316 313 313 313 310 302 312 311 315 322 314 303
118 112 107 113 102 85 84 81 77 60 155 114 15 349 330 0 338 336 339 329 321 322 324 326 324 322 319 319 311 310 304 307 308 302 304 300 304 298
109 110 113 109 101 96 86 93 79 75 66 76 14 334 301 346 343 346 339 326 326 326 325 326 326 322 317 311 305 304 296 305 303 299 299 297 296 297
101 108 105 114 113 108 99 95 90 74 57 52 13 317 300 349 343 341 340 342 328 326 325 323 314 315 313 304 307 306 315 311 299 292 292 292 290 289
99 106 114 115 110 107 107 105 93 74 66 38 7 326 344 349 347 335 332 330 325 335 335 331 332 324 314 307 302 309 318 313 308 303 296 292 287 282
123 102 99 106 102 98 101 95 84 87 68 27 348 359 359 344 341 333 328 341 352 349 334 321 324 316 313 310 315 315 312 311 312 305 303 302 297 290
100 105 94 90 94 98 88 78 71 67 69 94 30 12 310 345 330 330 328 331 313 313 326 307 322 314 313 310 305 307 307 313 310 308 310 307 300 303
76 85 98 101 105 111 93 82 68 60 46 38 355 305 303 329 326 316 318 319 318 324 333 289 325 305 314 299 290 301 311 314 310 317 314 311 308 305
79 73 92 100 98 99 93 84 76 44 20 15 3 355 344 338 330 327 336 341 336 337 300 295 316 316 313 303 299 322 312 314 323 318 314 314 315 303
85 77 96 96 88 80 85 92 75 28 2 359 9 6 2 348 342 339 326 333 327 310 289 328 322 350 316 325 322 324 333 334 326 315 320 323 332 294
95 88 88 85 80 80 79 72 61 39 19 21 14 15 5 356 338 332 334 324 309 261 283 323 300 300 257 301 310 318 333 326 319 321 326 317 318 301
100 98 92 84 81 75 64 53 46 45 34 31 24 11 359 343 336 333 332 311 291 267 285 284 274 282 278 292 283 313 324 324 321 319 322 307 308 323
99 97 89 75 65 63 52 44 42 38 31 29 16 357 340 334 337 346 343 326 313 290 289 286 280 292 275 259 286 296 314 324 321 326 318 324 34 343
92 85 75 74 67 59 49 41 42 35 34 24 1 335 344 3 356 349 339 337 335 339 323 295 310 310 301 271 275 300 324 324 323 327 325 55 17 6
92 80 69 56 55 45 44 39 30 31 21 12 357 6 360 358 348 338 334 334 350 338 339 349 351 319 291 273 305 332 326 335 336 342 357 24 24 12
84 74 70 63 55 46 40 35 26 22 10 8 18 8 354 345 336 344 349 347 347 341 337 338 341 354 1 335 46 331 338 339 352 352 4 20 32 22
78 76 71 64 58 48 41 33 24 8 11 21 9 352 344 337 339 354 359 353 354 344 337 338 346 359 358 356 311 326 346 347 350 3 2 21 21 26
64 67 66 58 53 49 40 26 16 20 23 13 349 339 343 345 354 359 2 358 348 346 347 351 356 354 345 327 311 309 331 358 1 359 360 341 65 16
71 66 61 57 51 48 37 24 30 29 21 348 341 336 351 358 6 4 357 356 348 354 350 349 338 318 301 301 356 355 353 355 20 16 355 352 18 22
64 63 61 54 51 43 31 30 33 29 1 345 346 346 354 9 14 4 0 355 353 346 337 334 345 353 12 17 11 1 360 359 8 29 38 40 17 46
60 64 50 44 45 42 36 37 31 9 354 348 350 354 6 15 12 9 8 358 357 355 356 357 1 7 17 12 2 7 12 8 1 24 41 36 49 64